Flag for Finland Weather past 2 weeks in Kokkola, Finland

Now
34 °F

Mostly cloudy.


Feels Like: 34 °F
Forecast: 28 / 39 °F
Wind: 2 mph from Southwest

Location: Kruunupyy

Current Time: Mar 28, 2015 at 7:54:47 PM

Latest Report: Mar 28, 2015 at 7:20 PM


Visibility: N/A

Pressure: 29.77 "Hg

Humidity: 93%

Dew point: 32 °F

Location of KokkolaLocation

Historic Weather in Kokkola — Graph

°F

Kokkola temperature yesterday

Maximum temperature yesterday: 43 °F (at 12:50 PM)
Minimum temperature yesterday: 28 °F (at 12:20 AM)
Average temperature yesterday: 35 °F

Past Weeks' High & Low Weather Summary

 TemperatureHumidityPressure
High50 °F (Mar 16, 2:20 PM)100% (Mar 14, 10:20 PM)30.98 "Hg (Mar 14, 10:20 PM)
Low9 °F (Mar 25, 4:50 AM)22% (Mar 16, 2:20 PM)29.03 "Hg (Mar 24, 12:50 AM)
Average31 °F69%30.24 "Hg
* Reported Mar 13 6:01 PM — Mar 28 6:20 PM, Kokkola, Weather by CustomWeather, © 2015

Note: Actual official high and low records may vary slightly from our data, if they occured in-between our weather recording intervals... More about our weather records

Advertising

Kokkola weather history for previous 24 hours

 ConditionsComfort  
Time TempWeatherWind HumidityBarometerVisibility
6:20 PM
Sat, Mar 28
34 °FMore clouds than sun.5 mph93%29.77 "HgN/A
5:50 PM34 °FMostly cloudy.6 mph100%29.77 "HgN/A
5:20 PM34 °FBroken clouds.5 mph100%29.77 "HgN/A
4:50 PM34 °FMostly cloudy.5 mph100%29.77 "HgN/A
4:20 PM34 °FBroken clouds.6 mph100%29.77 "HgN/A
3:50 PM34 °FMostly cloudy.6 mph100%29.74 "Hg5 mi
3:20 PM34 °FCloudy.7 mph100%29.74 "HgN/A
2:50 PM34 °FMostly cloudy.7 mph100%29.74 "HgN/A
2:20 PM34 °FLow clouds.7 mph100%29.74 "HgN/A
1:50 PM34 °FMostly cloudy.7 mph100%29.74 "HgN/A
1:20 PM34 °FLight rain. Mostly cloudy.8 mph100%29.71 "HgN/A
12:50 PM34 °FLight rain. More clouds than sun.6 mph100%29.71 "HgN/A
12:20 PM34 °FLight rain. Cloudy.7 mph100%29.71 "Hg4 mi
11:50 AM34 °FLight rain. Mostly cloudy.7 mph100%29.71 "Hg3 mi
11:20 AM32 °FLight rain. Cloudy.7 mph100%29.71 "Hg3 mi
10:50 AM32 °FLight rain. Cloudy.6 mph100%29.71 "Hg2 mi
10:20 AM32 °FLight rain. Cloudy.5 mph100%29.71 "Hg1 mi
9:50 AM32 °FLight rain. Partly sunny.6 mph100%29.71 "Hg1 mi
9:20 AM34 °FLight rain. Broken clouds.9 mph100%29.71 "Hg3 mi
8:50 AM36 °FLight rain. Mostly cloudy.9 mph100%29.71 "Hg6 mi
8:20 AM36 °FLight rain. Cloudy.9 mph100%29.71 "Hg4 mi
7:50 AM36 °FLight rain. Cloudy.7 mph100%29.74 "Hg4 mi
7:20 AM36 °FLight rain. Mostly cloudy.7 mph100%29.74 "Hg5 mi
6:50 AM36 °FLight rain. Mostly cloudy.7 mph100%29.74 "Hg4 mi
6:20 AM36 °FLight rain. Broken clouds.8 mph100%29.74 "Hg4 mi
5:20 AM36 °FLight rain. Mostly cloudy.9 mph100%29.77 "Hg4 mi
4:50 AM36 °FLight rain. Mostly cloudy.8 mph100%29.77 "Hg4 mi
4:20 AM36 °FSprinkles. Partly cloudy.9 mph100%29.77 "Hg5 mi
3:50 AM37 °FPassing clouds.10 mph93%29.80 "Hg6 mi
3:20 AM36 °FSprinkles. Passing clouds.10 mph100%29.80 "Hg4 mi
2:50 AM36 °FPassing clouds.9 mph100%29.80 "Hg5 mi
2:20 AM36 °FDrizzle. Mostly cloudy.10 mph100%29.80 "Hg3 mi
1:50 AM36 °FLight rain. Fog.9 mph100%29.83 "Hg3 mi
1:20 AM36 °FFog.10 mph100%29.83 "Hg2 mi
12:50 AM34 °FDrizzle. Overcast.9 mph100%29.83 "Hg2 mi
12:20 AM34 °FFog.10 mph100%29.83 "Hg2 mi
11:50 PM
Fri, Mar 27
34 °FLight rain. Overcast.12 mph100%29.83 "Hg2 mi
11:20 PM34 °FLight rain. Overcast.10 mph100%29.86 "Hg2 mi
10:50 PM34 °FLight rain. Overcast.12 mph93%29.86 "HgN/A
10:20 PM34 °FLight rain. Partly cloudy.12 mph93%29.86 "Hg4 mi
9:50 PM34 °FLight rain. Partly cloudy.12 mph93%29.86 "Hg3 mi
9:20 PM34 °FLight rain. Passing clouds.12 mph93%29.86 "Hg5 mi
8:50 PM34 °FLight rain. Mostly cloudy.10 mph93%29.89 "Hg5 mi
8:20 PM34 °FLight rain. Mostly cloudy.9 mph93%29.89 "Hg5 mi
7:50 PM34 °FLight rain. Overcast.9 mph93%29.89 "Hg6 mi
7:20 PM36 °FLight rain. Passing clouds.13 mph87%29.89 "HgN/A
Weather by CustomWeather, © 2015

See weather overviewHow to use our weather pages